DW4174 Weather Reports


time (UTC)temp
C
wind
direction
speed
KPH
gust
KPH
rain 1hr
cm
rain 24hr
cm
rain mn
cm
humidity
%
barometer
mb
20260508074812 23 108 3.2 4.8 0.00 0.00 0.00 23 1009.7
20260508073911 23 107 3.2 6.4 0.00 0.00 0.00 23 1009.7
20260508073013 23 99 3.2 6.4 0.00 0.00 0.00 23 1009.6
20260508072112 23 91 3.2 6.4 0.00 0.00 0.00 23 1009.4
20260508070311 24 100 3.2 6.4 0.00 0.00 0.00 22 1009.4
20260508065411 24 113 3.2 6.4 0.00 0.00 0.00 22 1009.3
20260508064511 23 246 0.0 6.4 0.00 0.00 0.00 23 1009.2
20260508063611 23 0 0.0 0.0 0.00 0.00 0.00 23 1009.3
20260508062711 23 261 0.0 3.2 0.00 0.00 0.00 23 1009.4
20260508061811 23 0 0.0 0.0 0.00 0.00 0.00 23 1009.4
20260508060911 23 0 0.0 0.0 0.00 0.00 0.00 23 1009.3
20260508060011 24 0 0.0 0.0 0.00 0.00 0.00 21 1009.3
20260508054212 24 0 0.0 0.0 0.00 0.00 0.00 21 1009.3
20260508053311 25 261 0.0 1.6 0.00 0.00 0.00 20 1009.3
20260508052411 25 261 1.6 3.2 0.00 0.00 0.00 19 1009.2
20260508051511 25 262 0.0 1.6 0.00 0.00 0.00 19 1009.0
20260508050611 25 0 0.0 0.0 0.00 0.00 0.00 19 1009.0
20260508045711 25 0 0.0 0.0 0.00 0.00 0.00 19 1009.0
20260508044811 25 0 0.0 0.0 0.00 0.00 0.00 18 1008.9
20260508043012 26 0 0.0 0.0 0.00 0.00 0.00 17 1008.8
20260508042111 26 0 0.0 0.0 0.00 0.00 0.00 16 1008.7
20260508041211 27 0 0.0 0.0 0.00 0.00 0.00 16 1008.6
20260508040311 27 262 1.6 3.2 0.00 0.00 0.00 15 1008.6
20260508035411 27 262 3.2 4.8 0.00 0.00 0.00 14 1008.5
20260508034511 28 265 3.2 6.4 0.00 0.00 0.00 14 1008.3
20260508033611 28 274 3.2 6.4 0.00 0.00 0.00 14 1008.2
20260508032711 28 279 3.2 4.8 0.00 0.00 0.00 13 1008.0
20260508030911 30 270 4.8 6.4 0.00 0.00 0.00 13 1007.9
20260508030011 30 255 6.4 9.7 0.00 0.00 0.00 12 1007.7
20260508025111 31 255 8.0 12.9 0.00 0.00 0.00 11 1007.7
20260508024211 31 256 8.0 14.5 0.00 0.00 0.00 11 1007.6
20260508022411 31 253 9.7 16.1 0.00 0.00 0.00 10 1007.3
20260508021511 32 257 11.3 19.3 0.00 0.00 0.00 10 1007.3
20260508020611 32 262 11.3 22.5 0.00 0.00 0.00 9 1007.2
20260508015711 32 280 11.3 19.3 0.00 0.00 0.00 9 1007.1
20260508014811 33 278 9.7 17.7 0.00 0.00 0.00 9 1007.1
20260508013911 33 267 8.0 16.1 0.00 0.00 0.00 8 1007.0
20260508013012 33 263 8.0 14.5 0.00 0.00 0.00 8 1006.9
20260508012111 33 263 11.3 19.3 0.00 0.00 0.00 8 1007.0
20260508011211 34 276 9.7 17.7 0.00 0.00 0.00 8 1006.8
20260508010312 34 285 11.3 19.3 0.00 0.00 0.00 7 1006.9
20260508005411 35 266 9.7 20.9 0.00 0.00 0.00 7 1006.8
20260508004511 35 270 6.4 14.5 0.00 0.00 0.00 7 1006.7
20260508003612 35 231 4.8 14.5 0.00 0.00 0.00 7 1006.8
20260508001812 35 225 6.4 11.3 0.00 0.00 0.00 7 1006.7
20260508000911 35 265 6.4 19.3 0.00 0.00 0.00 6 1006.8
20260508000011 35 244 4.8 16.1 0.00 0.00 0.00 7 1006.8
20260507235111 35 192 4.8 11.3 0.00 0.00 0.00 6 1006.8
20260507234212 35 23 6.4 14.5 0.00 0.00 0.00 7 1006.9
20260507233311 35 291 4.8 16.1 0.00 0.00 0.00 6 1007.0
20260507232411 35 338 4.8 12.9 0.00 0.00 0.00 6 1007.0
20260507231511 35 307 6.4 14.5 0.00 0.00 0.00 6 1007.1
20260507230611 35 98 3.2 17.7 0.00 0.00 0.00 6 1007.1
20260507223012 35 267 4.8 14.5 0.00 0.00 0.00 6 1007.6
20260507222111 35 317 9.7 17.7 0.00 0.00 0.00 6 1007.8
20260507221211 36 301 9.7 19.3 0.00 0.00 0.00 6 1007.8
20260507220311 36 295 9.7 17.7 0.00 0.00 0.00 6 1008.0
20260507215411 35 272 4.8 16.1 0.00 0.00 0.00 6 1008.0
20260507213611 35 190 6.4 17.7 0.00 0.00 0.00 7 1008.3
20260507212711 35 190 4.8 16.1 0.00 0.00 0.00 7 1008.4
20260507211810 35 219 4.8 14.5 0.00 0.00 0.00 8 1008.6
20260507210911 36 182 6.4 12.9 0.00 0.00 0.00 8 1008.8
20260507210011 36 237 6.4 20.9 0.00 0.00 0.00 7 1008.8
20260507204210 36 273 4.8 16.1 0.00 0.00 0.00 8 1009.1
20260507203311 35 31 4.8 8.0 0.00 0.00 0.00 8 1009.2
20260507202411 34 299 6.4 14.5 0.00 0.00 0.00 8 1009.4
20260507201511 35 186 6.4 14.5 0.00 0.00 0.00 8 1009.5
20260507195710 35 213 4.8 12.9 0.00 0.00 0.00 9 1009.8
20260507194811 34 188 4.8 11.3 0.00 0.00 0.00 9 1009.9
20260507193912 34 184 4.8 16.1 0.00 0.00 0.00 10 1010.2
20260507193011 34 213 4.8 12.9 0.00 0.00 0.00 10 1010.3
20260507192111 34 154 3.2 12.9 0.00 0.00 0.00 10 1010.4
20260507191211 32 166 3.2 8.0 0.00 0.00 0.00 10 1010.6
20260507190310 32 161 4.8 6.4 0.00 0.00 0.00 10 1010.8
20260507184510 32 141 4.8 9.7 0.00 0.00 0.00 10 1010.9
20260507183610 32 117 6.4 12.9 0.00 0.00 0.00 11 1011.1
20260507182710 32 172 4.8 11.3 0.00 0.00 0.00 11 1011.2
20260507181810 32 249 4.8 14.5 0.00 0.00 0.00 12 1011.3
20260507180910 32 241 4.8 14.5 0.00 0.00 0.00 12 1011.4
20260507180011 31 196 6.4 20.9 0.00 0.00 0.00 13 1011.5
20260507175110 31 127 4.8 20.9 0.00 0.00 0.00 13 1011.5
20260507174210 31 160 4.8 11.3 0.00 0.00 0.00 15 1011.7
20260507173310 31 175 4.8 12.9 0.00 0.00 0.00 15 1011.9
20260507171511 30 151 6.4 14.5 0.00 0.00 0.00 15 1011.9
20260507170610 30 156 6.4 17.7 0.00 0.00 0.00 17 1012.0
20260507165710 28 146 3.2 14.5 0.00 0.00 0.00 18 1012.0
20260507164810 28 94 4.8 6.4 0.00 0.00 0.00 19 1012.1
20260507163910 28 116 4.8 11.3 0.00 0.00 0.00 19 1012.2
20260507163010 28 154 4.8 9.7 0.00 0.00 0.00 22 1012.1
20260507162110 27 150 3.2 9.7 0.00 0.00 0.00 23 1012.2
20260507161210 27 119 3.2 11.3 0.00 0.00 0.00 24 1012.3
20260507160310 27 129 4.8 8.0 0.00 0.00 0.00 24 1012.4
20260507155410 27 143 3.2 9.7 0.00 0.00 0.00 25 1012.5
20260507154510 27 99 4.8 11.3 0.00 0.00 0.00 24 1012.5
20260507153610 27 84 6.4 11.3 0.00 0.00 0.00 21 1012.5
20260507152710 26 91 8.0 12.9 0.00 0.00 0.00 22 1012.5
20260507151810 26 95 8.0 16.1 0.00 0.00 0.00 22 1012.5
20260507150910 26 87 8.0 16.1 0.00 0.00 0.00 22 1012.5
20260507150010 25 85 6.4 14.5 0.00 0.00 0.00 22 1012.4
20260507145110 25 66 6.4 16.1 0.00 0.00 0.00 23 1012.4
20260507144210 25 59 4.8 14.5 0.00 0.00 0.00 24 1012.4
20260507143310 24 38 3.2 8.0 0.00 0.00 0.00 26 1012.5
20260507142410 23 59 3.2 6.4 0.00 0.00 0.00 27 1012.5
20260507141510 22 60 3.2 6.4 0.00 0.00 0.00 29 1012.4
20260507135710 21 31 8.0 12.9 0.00 0.00 0.00 30 1012.2
20260507134810 21 25 9.7 19.3 0.00 0.00 0.00 30 1012.2
20260507133910 21 20 6.4 17.7 0.00 0.00 0.00 30 1012.2
20260507132110 20 25 4.8 16.1 0.00 0.00 0.00 32 1012.1
20260507131211 19 350 3.2 9.7 0.00 0.00 0.00 34 1012.1
20260507130310 18 26 3.2 6.4 0.00 0.00 0.00 34 1011.9
20260507125410 18 29 3.2 4.8 0.00 0.00 0.00 35 1012.0
20260507123610 18 24 4.8 8.0 0.00 0.00 0.00 34 1011.9
20260507121810 17 55 1.6 4.8 0.00 0.00 0.00 36 1012.0
20260507120910 17 55 1.6 3.2 0.00 0.00 0.00 37 1012.0
20260507120010 17 56 0.0 4.8 0.00 0.00 0.00 36 1011.9
20260507115110 17 57 1.6 4.8 0.00 0.00 0.00 36 1011.9
20260507114210 17 57 0.0 3.2 0.00 0.00 0.00 36 1011.7
20260507113310 17 57 0.0 3.2 0.00 0.00 0.00 36 1011.8
20260507111510 18 56 3.2 8.0 0.00 0.00 0.00 33 1011.7
20260507110610 19 46 4.8 8.0 0.00 0.00 0.00 32 1011.8
20260507105710 19 25 4.8 9.7 0.00 0.00 0.00 33 1011.9
20260507104810 18 27 3.2 6.4 0.00 0.00 0.00 33 1012.0
20260507103910 18 29 1.6 4.8 0.00 0.00 0.00 34 1012.1
20260507103010 18 29 0.0 4.8 0.00 0.00 0.00 34 1012.1
20260507102110 19 0 0.0 0.0 0.00 0.00 0.00 33 1012.2
20260507101210 18 30 1.6 4.8 0.00 0.00 0.00 34 1012.3
20260507100310 20 30 3.2 6.4 0.00 0.00 0.00 33 1012.4
20260507095409 20 31 3.2 6.4 0.00 0.00 0.00 33 1012.4
20260507094510 19 37 3.2 6.4 0.00 0.00 0.00 33 1012.5
20260507093610 19 50 1.6 6.4 0.00 0.00 0.00 34 1012.5
20260507092710 19 50 3.2 4.8 0.00 0.00 0.00 34 1012.5
20260507090910 20 51 3.2 4.8 0.00 0.00 0.00 32 1012.5
20260507090010 20 51 3.2 4.8 0.00 0.00 0.00 32 1012.5
20260507085110 20 52 3.2 6.4 0.00 0.00 0.00 32 1012.6
20260507083310 20 55 0.0 4.8 0.00 0.00 0.00 32 1012.7
20260507081509 20 343 1.6 3.2 0.00 0.00 0.00 34 1012.8
20260507080609 20 342 3.2 4.8 0.00 0.00 0.00 33 1012.8
20260507075710 20 341 1.6 6.4 0.00 0.00 0.00 33 1012.8